Time,TemperatureF,DewpointF,PressureIn,WindDirection,WindDirectionDegrees,WindSpeedMPH,WindSpeedGustMPH,Humidity,HourlyPrecipIn,Conditions,Clouds,dailyrainin,SoftwareType,DateUTC
2013-02-12 00:00:00,44.3,31.3,30.08,North,0,1.3,2.0,60,0.00,,,0.02,WUHU216HW,2013-02-12 05:00:00,
2013-02-12 00:05:00,44.3,30.9,30.08,North,0,2.0,2.5,59,0.00,,,0.00,WUHU216HW,2013-02-12 05:05:00,
2013-02-12 00:10:00,44.3,30.9,30.08,North,0,1.1,2.7,59,0.00,,,0.00,WUHU216HW,2013-02-12 05:10:00,
2013-02-12 00:15:00,44.3,30.9,30.08,North,0,0.9,2.7,59,0.00,,,0.00,WUHU216HW,2013-02-12 05:15:00,
2013-02-12 00:20:00,44.3,30.4,30.08,NNW,338,1.1,1.8,58,0.00,,,0.00,WUHU216HW,2013-02-12 05:20:00,
2013-02-12 00:25:00,44.1,30.2,30.08,NNW,338,1.6,1.8,58,0.00,,,0.00,WUHU216HW,2013-02-12 05:25:00,
2013-02-12 00:30:00,43.9,30.1,30.08,NNW,338,1.3,1.8,58,0.00,,,0.00,WUHU216HW,2013-02-12 05:30:00,
2013-02-12 00:35:00,43.9,30.1,30.08,NW,315,0.4,1.6,58,0.00,,,0.00,WUHU216HW,2013-02-12 05:35:00,
2013-02-12 00:40:00,43.7,29.9,30.08,NW,315,0.2,1.3,58,0.00,,,0.00,WUHU216HW,2013-02-12 05:40:00,
2013-02-12 00:45:00,43.6,29.7,30.08,NNW,338,0.0,1.1,58,0.00,,,0.00,WUHU216HW,2013-02-12 05:45:00,
2013-02-12 00:50:00,43.6,29.7,30.08,South,180,1.1,1.8,58,0.00,,,0.00,WUHU216HW,2013-02-12 05:50:00,
2013-02-12 00:55:00,43.4,29.5,30.09,East,90,1.1,1.8,58,0.00,,,0.00,WUHU216HW,2013-02-12 05:55:00,
2013-02-12 01:00:00,43.2,29.3,30.09,SE,135,1.1,1.3,58,0.00,,,0.00,WUHU216HW,2013-02-12 06:00:00,
2013-02-12 01:05:00,43.0,29.2,30.09,ESE,113,0.0,1.3,58,0.00,,,0.00,WUHU216HW,2013-02-12 06:05:00,
2013-02-12 01:10:00,42.8,29.0,30.09,SE,135,0.4,1.1,58,0.00,,,0.00,WUHU216HW,2013-02-12 06:10:00,
2013-02-12 01:15:00,42.8,29.0,30.10,East,90,0.2,1.1,58,0.00,,,0.00,WUHU216HW,2013-02-12 06:15:00,
2013-02-12 01:20:00,42.8,29.0,30.09,East,90,0.0,0.4,58,0.00,,,0.00,WUHU216HW,2013-02-12 06:20:00,
2013-02-12 01:25:00,42.8,29.0,30.10,East,90,0.9,0.9,58,0.00,,,0.00,WUHU216HW,2013-02-12 06:25:00,
2013-02-12 01:30:00,42.8,29.0,30.10,NNW,338,0.0,0.9,58,0.00,,,0.00,WUHU216HW,2013-02-12 06:30:00,
2013-02-12 01:35:00,42.8,29.0,30.09,North,0,0.4,0.9,58,0.00,,,0.00,WUHU216HW,2013-02-12 06:35:00,
2013-02-12 01:40:00,42.8,29.0,30.09,North,0,0.0,0.4,58,0.00,,,0.00,WUHU216HW,2013-02-12 06:40:00,
2013-02-12 01:45:00,42.8,28.6,30.09,NW,315,0.4,0.4,57,0.00,,,0.00,WUHU216HW,2013-02-12 06:45:00,
2013-02-12 01:50:00,42.8,28.6,30.10,NW,315,0.4,0.4,57,0.00,,,0.00,WUHU216HW,2013-02-12 06:50:00,
2013-02-12 01:55:00,42.8,29.0,30.10,NNE,23,0.0,0.4,58,0.00,,,0.00,WUHU216HW,2013-02-12 06:55:00,
2013-02-12 02:00:00,42.5,28.7,30.10,North,0,0.0,0.4,58,0.00,,,0.00,WUHU216HW,2013-02-12 07:00:00,
2013-02-12 02:05:00,42.5,28.3,30.10,NNW,338,0.0,1.1,57,0.00,,,0.00,WUHU216HW,2013-02-12 07:05:00,
2013-02-12 02:10:00,42.3,28.1,30.10,NNE,23,0.0,1.1,57,0.00,,,0.00,WUHU216HW,2013-02-12 07:10:00,
2013-02-12 02:15:00,42.3,28.5,30.10,NE,45,0.0,0.4,58,0.00,,,0.00,WUHU216HW,2013-02-12 07:15:00,
2013-02-12 02:20:00,42.3,28.5,30.09,SE,135,1.1,1.3,58,0.00,,,0.00,WUHU216HW,2013-02-12 07:20:00,
2013-02-12 02:25:00,42.1,28.4,30.10,ESE,113,0.9,1.3,58,0.00,,,0.00,WUHU216HW,2013-02-12 07:25:00,
2013-02-12 02:30:00,42.1,28.8,30.10,ESE,113,0.0,1.1,59,0.00,,,0.00,WUHU216HW,2013-02-12 07:30:00,
2013-02-12 02:35:00,41.9,28.6,30.10,ESE,113,0.7,1.1,59,0.00,,,0.00,WUHU216HW,2013-02-12 07:35:00,
2013-02-12 02:40:00,41.9,28.6,30.10,ESE,113,0.0,1.1,59,0.00,,,0.00,WUHU216HW,2013-02-12 07:40:00,
2013-02-12 02:45:00,41.8,28.4,30.10,ESE,113,0.0,0.7,59,0.00,,,0.00,WUHU216HW,2013-02-12 07:45:00,
2013-02-12 02:50:00,41.8,28.4,30.09,NNE,23,0.4,1.3,59,0.00,,,0.00,WUHU216HW,2013-02-12 07:50:00,
2013-02-12 02:55:00,41.8,28.4,30.10,NNE,23,0.0,1.3,59,0.00,,,0.00,WUHU216HW,2013-02-12 07:55:00,
2013-02-12 03:00:00,41.6,28.3,30.10,SSE,158,0.0,0.7,59,0.00,,,0.00,WUHU216HW,2013-02-12 08:00:00,
2013-02-12 03:05:00,41.4,28.2,30.10,SE,135,0.9,0.9,59,0.00,,,0.00,WUHU216HW,2013-02-12 08:05:00,
2013-02-12 03:10:00,41.4,28.6,30.10,SE,135,1.1,1.1,60,0.00,,,0.00,WUHU216HW,2013-02-12 08:10:00,
2013-02-12 03:15:00,41.0,28.3,30.11,SE,135,0.4,1.1,60,0.00,,,0.00,WUHU216HW,2013-02-12 08:15:00,
2013-02-12 03:20:00,40.9,28.4,30.10,ESE,113,0.4,1.1,61,0.00,,,0.00,WUHU216HW,2013-02-12 08:20:00,
2013-02-12 03:25:00,40.7,28.3,30.11,ESE,113,0.0,1.1,61,0.00,,,0.00,WUHU216HW,2013-02-12 08:25:00,
2013-02-12 03:30:00,40.5,28.4,30.11,ESE,113,0.0,0.4,62,0.00,,,0.00,WUHU216HW,2013-02-12 08:30:00,
2013-02-12 03:35:00,40.3,28.3,30.10,ENE,68,0.2,0.4,62,0.00,,,0.00,WUHU216HW,2013-02-12 08:35:00,
2013-02-12 03:40:00,40.3,28.7,30.10,NE,45,0.0,0.4,63,0.00,,,0.00,WUHU216HW,2013-02-12 08:40:00,
2013-02-12 03:45:00,40.3,28.7,30.10,NW,315,0.0,0.4,63,0.00,,,0.00,WUHU216HW,2013-02-12 08:45:00,
2013-02-12 03:50:00,40.3,28.3,30.10,NNW,338,0.0,0.4,62,0.00,,,0.00,WUHU216HW,2013-02-12 08:50:00,
2013-02-12 03:55:00,40.3,28.3,30.11,NNW,338,0.0,0.0,62,0.00,,,0.00,WUHU216HW,2013-02-12 08:55:00,
2013-02-12 04:00:00,40.3,28.3,30.10,NNW,338,0.0,0.0,62,0.00,,,0.00,WUHU216HW,2013-02-12 09:00:00,
2013-02-12 04:05:00,40.3,28.3,30.10,NNW,338,0.0,0.2,62,0.00,,,0.00,WUHU216HW,2013-02-12 09:05:00,
2013-02-12 04:10:00,40.3,28.3,30.11,NNW,338,0.0,0.2,62,0.00,,,0.00,WUHU216HW,2013-02-12 09:10:00,
2013-02-12 04:15:00,40.3,28.3,30.11,NNW,338,0.0,0.0,62,0.00,,,0.00,WUHU216HW,2013-02-12 09:15:00,
2013-02-12 04:20:00,40.0,28.4,30.11,NNW,338,0.0,0.2,63,0.00,,,0.00,WUHU216HW,2013-02-12 09:20:00,
2013-02-12 04:25:00,39.8,28.2,30.11,ENE,68,0.0,0.2,63,0.00,,,0.00,WUHU216HW,2013-02-12 09:25:00,
2013-02-12 04:30:00,39.8,28.2,30.11,East,90,0.0,0.0,63,0.00,,,0.00,WUHU216HW,2013-02-12 09:30:00,
2013-02-12 04:35:00,39.8,28.2,30.10,ESE,113,0.7,0.7,63,0.00,,,0.00,WUHU216HW,2013-02-12 09:35:00,
2013-02-12 04:40:00,39.6,28.0,30.10,SE,135,1.6,2.0,63,0.00,,,0.00,WUHU216HW,2013-02-12 09:40:00,
2013-02-12 04:45:00,39.4,27.8,30.11,SE,135,0.4,2.0,63,0.00,,,0.00,WUHU216HW,2013-02-12 09:45:00,
2013-02-12 04:50:00,39.2,27.6,30.11,ESE,113,0.0,1.6,63,0.00,,,0.00,WUHU216HW,2013-02-12 09:50:00,
2013-02-12 04:55:00,39.2,27.6,30.12,ESE,113,0.0,0.4,63,0.00,,,0.00,WUHU216HW,2013-02-12 09:55:00,
2013-02-12 05:00:00,39.2,27.6,30.11,ESE,113,0.0,0.4,63,0.00,,,0.00,WUHU216HW,2013-02-12 10:00:00,
2013-02-12 05:05:00,39.2,27.6,30.11,ESE,113,0.0,0.2,63,0.00,,,0.00,WUHU216HW,2013-02-12 10:05:00,
2013-02-12 05:10:00,39.2,27.6,30.11,ESE,113,0.0,0.0,63,0.00,,,0.00,WUHU216HW,2013-02-12 10:10:00,
2013-02-12 05:15:00,39.2,27.6,30.10,ESE,113,0.0,0.4,63,0.00,,,0.00,WUHU216HW,2013-02-12 10:15:00,
2013-02-12 05:20:00,39.1,27.5,30.10,ESE,113,0.4,0.9,63,0.00,,,0.00,WUHU216HW,2013-02-12 10:20:00,
2013-02-12 05:25:00,39.1,27.5,30.11,NE,45,0.0,0.9,63,0.00,,,0.00,WUHU216HW,2013-02-12 10:25:00,
2013-02-12 05:30:00,39.2,27.6,30.10,NE,45,0.0,0.4,63,0.00,,,0.00,WUHU216HW,2013-02-12 10:30:00,
2013-02-12 05:35:00,39.2,27.6,30.10,NE,45,0.0,0.0,63,0.00,,,0.00,WUHU216HW,2013-02-12 10:35:00,
2013-02-12 05:40:00,39.2,27.6,30.10,NNE,23,0.4,0.7,63,0.00,,,0.00,WUHU216HW,2013-02-12 10:40:00,
2013-02-12 05:45:00,39.2,27.6,30.10,NNE,23,0.0,0.7,63,0.00,,,0.00,WUHU216HW,2013-02-12 10:45:00,
2013-02-12 05:50:00,39.2,27.6,30.11,NNE,23,0.0,0.4,63,0.00,,,0.00,WUHU216HW,2013-02-12 10:50:00,
2013-02-12 05:55:00,39.1,27.5,30.10,NNE,23,0.4,0.7,63,0.00,,,0.00,WUHU216HW,2013-02-12 10:55:00,
2013-02-12 06:00:00,39.1,27.5,30.10,NNE,23,0.0,0.7,63,0.00,,,0.00,WUHU216HW,2013-02-12 11:00:00,
2013-02-12 06:05:00,39.1,27.5,30.11,NNE,23,0.0,0.7,63,0.00,,,0.00,WUHU216HW,2013-02-12 11:05:00,
2013-02-12 06:10:00,39.2,27.6,30.11,North,0,0.0,0.2,63,0.00,,,0.00,WUHU216HW,2013-02-12 11:10:00,
2013-02-12 06:15:00,39.2,27.6,30.11,NNE,23,0.4,1.1,63,0.00,,,0.00,WUHU216HW,2013-02-12 11:15:00,
2013-02-12 06:20:00,39.2,27.6,30.12,ENE,68,0.2,1.1,63,0.00,,,0.00,WUHU216HW,2013-02-12 11:20:00,
2013-02-12 06:25:00,39.2,27.6,30.12,SE,135,0.2,0.4,63,0.00,,,0.00,WUHU216HW,2013-02-12 11:25:00,
2013-02-12 06:30:00,39.2,28.0,30.12,SSE,158,0.9,0.9,64,0.00,,,0.00,WUHU216HW,2013-02-12 11:30:00,
2013-02-12 06:35:00,39.2,28.0,30.13,SSE,158,0.0,0.9,64,0.00,,,0.00,WUHU216HW,2013-02-12 11:35:00,
2013-02-12 06:40:00,39.1,27.8,30.12,SSE,158,0.4,0.4,64,0.00,,,0.00,WUHU216HW,2013-02-12 11:40:00,
2013-02-12 06:45:00,39.1,27.8,30.12,SSE,158,0.0,0.4,64,0.00,,,0.00,WUHU216HW,2013-02-12 11:45:00,
2013-02-12 06:50:00,38.9,27.6,30.13,East,90,0.4,0.4,64,0.00,,,0.00,WUHU216HW,2013-02-12 11:50:00,
2013-02-12 06:55:00,38.9,27.6,30.13,NNE,23,0.0,0.4,64,0.00,,,0.00,WUHU216HW,2013-02-12 11:55:00,
2013-02-12 07:00:00,38.9,27.6,30.12,NNE,23,0.2,1.1,64,0.00,,,0.00,WUHU216HW,2013-02-12 12:00:00,
2013-02-12 07:05:00,39.1,27.8,30.13,NNE,23,0.0,1.1,64,0.00,,,0.00,WUHU216HW,2013-02-12 12:05:00,
2013-02-12 07:10:00,39.1,27.8,30.13,NE,45,0.0,0.2,64,0.00,,,0.00,WUHU216HW,2013-02-12 12:10:00,
2013-02-12 07:15:00,39.2,28.0,30.12,NE,45,0.0,0.0,64,0.00,,,0.00,WUHU216HW,2013-02-12 12:15:00,
2013-02-12 07:20:00,39.1,27.8,30.12,NE,45,0.0,0.0,64,0.00,,,0.00,WUHU216HW,2013-02-12 12:20:00,
2013-02-12 07:25:00,39.1,27.8,30.12,NE,45,0.0,0.2,64,0.00,,,0.00,WUHU216HW,2013-02-12 12:25:00,
2013-02-12 07:30:00,39.1,27.8,30.12,NE,45,0.0,0.2,64,0.00,,,0.00,WUHU216HW,2013-02-12 12:30:00,
2013-02-12 07:35:00,39.1,27.8,30.11,NE,45,0.0,0.0,64,0.00,,,0.00,WUHU216HW,2013-02-12 12:35:00,
2013-02-12 07:40:00,39.1,27.8,30.11,NE,45,0.0,0.0,64,0.00,,,0.00,WUHU216HW,2013-02-12 12:40:00,
2013-02-12 07:45:00,39.2,28.0,30.11,NE,45,0.0,0.0,64,0.00,,,0.00,WUHU216HW,2013-02-12 12:45:00,
2013-02-12 07:50:00,39.2,28.0,30.11,NE,45,0.0,0.0,64,0.00,,,0.00,WUHU216HW,2013-02-12 12:50:00,
2013-02-12 07:55:00,39.2,28.0,30.12,NE,45,0.0,0.0,64,0.00,,,0.00,WUHU216HW,2013-02-12 12:55:00,
2013-02-12 08:00:00,39.2,28.0,30.13,North,0,0.0,0.0,64,0.00,,,0.00,WUHU216HW,2013-02-12 13:00:00,
2013-02-12 08:05:00,39.2,28.0,30.13,NE,45,0.0,0.0,64,0.00,,,0.00,WUHU216HW,2013-02-12 13:05:00,
2013-02-12 08:10:00,39.4,28.2,30.13,NNE,23,0.0,0.0,64,0.00,,,0.00,WUHU216HW,2013-02-12 13:10:00,
2013-02-12 08:15:00,39.4,28.2,30.13,East,90,0.0,0.2,64,0.00,,,0.00,WUHU216HW,2013-02-12 13:15:00,
2013-02-12 08:20:00,39.4,28.2,30.13,ESE,113,0.2,0.4,64,0.00,,,0.00,WUHU216HW,2013-02-12 13:20:00,
2013-02-12 08:25:00,39.6,28.7,30.14,SE,135,0.0,0.4,65,0.00,,,0.00,WUHU216HW,2013-02-12 13:25:00,
2013-02-12 08:30:00,39.4,28.5,30.14,SSE,158,0.4,0.4,65,0.00,,,0.00,WUHU216HW,2013-02-12 13:30:00,
2013-02-12 08:35:00,39.6,28.7,30.15,SSE,158,0.4,0.7,65,0.00,,,0.00,WUHU216HW,2013-02-12 13:35:00,
2013-02-12 08:40:00,39.8,29.3,30.15,South,180,0.0,0.7,66,0.00,,,0.00,WUHU216HW,2013-02-12 13:40:00,
2013-02-12 08:45:00,39.8,29.3,30.15,SSE,158,0.0,0.4,66,0.00,,,0.00,WUHU216HW,2013-02-12 13:45:00,
2013-02-12 08:50:00,40.0,29.8,30.14,SSE,158,0.0,0.0,67,0.00,,,0.00,WUHU216HW,2013-02-12 13:50:00,
2013-02-12 08:55:00,40.3,30.2,30.15,SSE,158,0.0,0.0,67,0.00,,,0.00,WUHU216HW,2013-02-12 13:55:00,
2013-02-12 09:00:00,40.7,30.5,30.15,SSE,158,0.0,0.0,67,0.00,,,0.00,WUHU216HW,2013-02-12 14:00:00,
2013-02-12 09:05:00,41.2,31.5,30.15,South,180,0.0,0.0,68,0.00,,,0.00,WUHU216HW,2013-02-12 14:05:00,
2013-02-12 09:10:00,41.8,32.4,30.14,WSW,248,0.7,0.7,69,0.00,,,0.00,WUHU216HW,2013-02-12 14:10:00,
2013-02-12 09:15:00,42.3,33.0,30.14,WSW,248,0.4,0.9,69,0.00,,,0.00,WUHU216HW,2013-02-12 14:15:00,
2013-02-12 09:20:00,42.8,32.7,30.14,NW,315,1.1,1.1,67,0.00,,,0.00,WUHU216HW,2013-02-12 14:20:00,
2013-02-12 09:25:00,43.0,32.4,30.13,NNW,338,0.4,1.1,66,0.00,,,0.00,WUHU216HW,2013-02-12 14:25:00,
2013-02-12 09:30:00,43.4,32.4,30.13,North,0,0.2,1.1,65,0.00,,,0.00,WUHU216HW,2013-02-12 14:30:00,
2013-02-12 09:35:00,43.6,32.1,30.12,SSE,158,0.9,2.2,64,0.00,,,0.00,WUHU216HW,2013-02-12 14:35:00,
2013-02-12 09:40:00,43.9,32.5,30.12,South,180,0.4,2.2,64,0.00,,,0.00,WUHU216HW,2013-02-12 14:40:00,
2013-02-12 09:45:00,44.1,32.3,30.13,SE,135,0.7,1.3,63,0.00,,,0.00,WUHU216HW,2013-02-12 14:45:00,
2013-02-12 09:50:00,44.3,32.0,30.12,SSE,158,2.7,2.7,62,0.00,,,0.00,WUHU216HW,2013-02-12 14:50:00,
2013-02-12 09:55:00,44.6,32.0,30.11,SE,135,1.1,3.4,61,0.00,,,0.00,WUHU216HW,2013-02-12 14:55:00,
2013-02-12 10:00:00,44.6,31.7,30.11,SE,135,1.1,4.0,60,0.00,,,0.00,WUHU216HW,2013-02-12 15:00:00,
2013-02-12 10:05:00,44.8,31.9,30.11,SW,225,0.4,4.0,60,0.00,,,0.00,WUHU216HW,2013-02-12 15:05:00,
2013-02-12 10:10:00,44.8,31.4,30.12,NE,45,0.4,2.2,59,0.00,,,0.00,WUHU216HW,2013-02-12 15:10:00,
2013-02-12 10:15:00,45.0,30.7,30.11,SW,225,0.0,2.2,57,0.00,,,0.00,WUHU216HW,2013-02-12 15:15:00,
2013-02-12 10:20:00,45.2,31.2,30.11,NNE,23,2.0,2.2,58,0.00,,,0.00,WUHU216HW,2013-02-12 15:20:00,
2013-02-12 10:25:00,45.5,31.1,30.11,East,90,0.4,2.2,57,0.00,,,0.00,WUHU216HW,2013-02-12 15:25:00,
2013-02-12 10:30:00,45.7,31.3,30.11,NNW,338,1.8,2.7,57,0.00,,,0.00,WUHU216HW,2013-02-12 15:30:00,
2013-02-12 10:35:00,45.9,30.2,30.11,North,0,0.7,3.8,54,0.00,,,0.00,WUHU216HW,2013-02-12 15:35:00,
2013-02-12 10:40:00,46.3,30.9,30.10,NNW,338,1.1,3.8,55,0.00,,,0.00,WUHU216HW,2013-02-12 15:40:00,
2013-02-12 10:46:00,46.4,31.1,30.10,SSW,203,0.2,3.1,55,0.00,,,0.00,WUHU216HW,2013-02-12 15:46:00,
2013-02-12 10:51:00,46.6,30.8,30.10,NNE,23,1.1,3.4,54,0.00,,,0.00,WUHU216HW,2013-02-12 15:51:00,
2013-02-12 10:56:00,46.8,31.0,30.09,ESE,113,1.8,3.4,54,0.00,,,0.00,WUHU216HW,2013-02-12 15:56:00,
2013-02-12 11:01:00,47.2,31.3,30.09,ESE,113,2.0,2.9,54,0.00,,,0.00,WUHU216HW,2013-02-12 16:01:00,
2013-02-12 11:06:00,47.2,30.8,30.08,SW,225,0.4,2.9,53,0.00,,,0.00,WUHU216HW,2013-02-12 16:06:00,
2013-02-12 11:11:00,47.5,31.1,30.08,SE,135,1.6,2.5,53,0.00,,,0.00,WUHU216HW,2013-02-12 16:11:00,
2013-02-12 11:16:00,47.9,31.1,30.06,SE,135,2.0,4.3,52,0.00,,,0.00,WUHU216HW,2013-02-12 16:16:00,
2013-02-12 11:21:00,48.2,30.9,30.06,ESE,113,4.9,5.4,51,0.00,,,0.00,WUHU216HW,2013-02-12 16:21:00,
2013-02-12 11:26:00,48.4,31.1,30.04,SE,135,1.6,5.4,51,0.00,,,0.00,WUHU216HW,2013-02-12 16:26:00,
2013-02-12 11:31:00,49.0,31.1,30.04,SE,135,1.6,4.9,50,0.00,,,0.00,WUHU216HW,2013-02-12 16:31:00,
2013-02-12 11:36:00,49.1,30.8,30.04,SSE,158,1.3,4.5,49,0.00,,,0.00,WUHU216HW,2013-02-12 16:36:00,
2013-02-12 11:41:00,49.3,31.0,30.04,ESE,113,2.7,3.1,49,0.00,,,0.00,WUHU216HW,2013-02-12 16:41:00,
2013-02-12 11:46:00,49.5,30.6,30.04,SE,135,1.8,7.4,48,0.00,,,0.00,WUHU216HW,2013-02-12 16:46:00,
2013-02-12 11:51:00,49.7,30.8,30.05,SE,135,1.8,7.4,48,0.00,,,0.00,WUHU216HW,2013-02-12 16:51:00,
2013-02-12 11:56:00,50.0,31.2,30.05,South,180,0.7,3.4,48,0.00,,,0.00,WUHU216HW,2013-02-12 16:56:00,
2013-02-12 12:01:00,50.4,31.4,30.05,SW,225,2.7,3.4,48,0.00,,,0.00,WUHU216HW,2013-02-12 17:01:00,
2013-02-12 12:06:00,50.8,31.8,30.05,ESE,113,1.1,4.0,48,0.00,,,0.00,WUHU216HW,2013-02-12 17:06:00,
2013-02-12 12:11:00,50.9,31.3,30.04,NE,45,5.4,5.4,47,0.00,,,0.00,WUHU216HW,2013-02-12 17:11:00,
2013-02-12 12:16:00,50.9,32.0,30.05,SE,135,1.6,5.4,48,0.00,,,0.00,WUHU216HW,2013-02-12 17:16:00,
2013-02-12 12:21:00,51.1,31.5,30.05,SE,135,0.7,5.4,47,0.00,,,0.00,WUHU216HW,2013-02-12 17:21:00,
2013-02-12 12:26:00,51.5,32.4,30.05,SSE,158,1.8,4.0,48,0.00,,,0.00,WUHU216HW,2013-02-12 17:26:00,
2013-02-12 12:31:00,51.8,31.1,30.05,West,270,2.7,4.0,45,0.00,,,0.00,WUHU216HW,2013-02-12 17:31:00,
2013-02-12 12:36:00,51.8,32.1,30.05,SSE,158,2.5,3.4,47,0.00,,,0.00,WUHU216HW,2013-02-12 17:36:00,
2013-02-12 12:41:00,52.2,32.5,30.05,SSE,158,2.9,3.4,47,0.00,,,0.00,WUHU216HW,2013-02-12 17:41:00,
2013-02-12 12:46:00,52.0,31.8,30.06,ESE,113,1.1,3.4,46,0.00,,,0.00,WUHU216HW,2013-02-12 17:46:00,
2013-02-12 12:51:00,52.0,32.3,30.06,ESE,113,2.7,3.8,47,0.00,,,0.00,WUHU216HW,2013-02-12 17:51:00,
2013-02-12 12:56:00,52.2,32.5,30.06,NNE,23,0.7,3.8,47,0.00,,,0.00,WUHU216HW,2013-02-12 17:56:00,
2013-02-12 13:01:00,52.2,32.0,30.06,SW,225,0.0,2.9,46,0.00,,,0.00,WUHU216HW,2013-02-12 18:01:00,
2013-02-12 13:06:00,52.2,31.4,30.06,WNW,293,1.3,2.5,45,0.00,,,0.00,WUHU216HW,2013-02-12 18:06:00,
2013-02-12 13:11:00,52.4,32.7,30.06,NW,315,2.5,2.5,47,0.00,,,0.00,WUHU216HW,2013-02-12 18:11:00,
2013-02-12 13:16:00,52.2,32.5,30.05,NW,315,2.0,2.9,47,0.00,,,0.00,WUHU216HW,2013-02-12 18:16:00,
2013-02-12 13:21:00,52.2,32.0,30.04,North,0,1.3,2.9,46,0.00,,,0.00,WUHU216HW,2013-02-12 18:21:00,
2013-02-12 13:26:00,52.2,32.0,30.04,North,0,0.4,2.5,46,0.00,,,0.00,WUHU216HW,2013-02-12 18:26:00,
2013-02-12 13:31:00,52.2,30.8,30.05,WNW,293,3.4,3.4,44,0.00,,,0.00,WUHU216HW,2013-02-12 18:31:00,
2013-02-12 13:36:00,52.0,31.8,30.05,NW,315,0.4,3.4,46,0.00,,,0.00,WUHU216HW,2013-02-12 18:36:00,
2013-02-12 13:41:00,52.0,31.8,30.04,North,0,1.6,3.4,46,0.00,,,0.00,WUHU216HW,2013-02-12 18:41:00,
2013-02-12 13:46:00,51.8,31.6,30.04,NW,315,1.3,2.7,46,0.00,,,0.00,WUHU216HW,2013-02-12 18:46:00,
2013-02-12 13:51:00,51.7,30.9,30.04,WSW,248,0.9,2.5,45,0.00,,,0.00,WUHU216HW,2013-02-12 18:51:00,
2013-02-12 13:56:00,51.5,30.2,30.04,WNW,293,2.5,2.5,44,0.00,,,0.00,WUHU216HW,2013-02-12 18:56:00,
2013-02-12 14:01:00,51.5,30.7,30.04,WNW,293,1.8,2.7,45,0.00,,,0.00,WUHU216HW,2013-02-12 19:01:00,
2013-02-12 14:06:00,51.7,30.9,30.02,NW,315,0.4,2.7,45,0.00,,,0.00,WUHU216HW,2013-02-12 19:06:00,
2013-02-12 14:11:00,51.5,30.7,30.01,North,0,0.2,2.2,45,0.00,,,0.00,WUHU216HW,2013-02-12 19:11:00,
2013-02-12 14:16:00,51.5,30.7,29.99,North,0,3.1,3.6,45,0.00,,,0.00,WUHU216HW,2013-02-12 19:16:00,
2013-02-12 14:21:00,51.5,31.3,30.00,NNW,338,1.1,3.6,46,0.00,,,0.00,WUHU216HW,2013-02-12 19:21:00,
2013-02-12 14:26:00,51.7,31.4,29.99,North,0,0.9,4.9,46,0.00,,,0.00,WUHU216HW,2013-02-12 19:26:00,
2013-02-12 14:31:00,51.7,31.4,29.98,NNW,338,0.4,4.9,46,0.00,,,0.00,WUHU216HW,2013-02-12 19:31:00,
2013-02-12 14:36:00,51.7,31.4,29.99,East,90,1.8,3.4,46,0.00,,,0.00,WUHU216HW,2013-02-12 19:36:00,
2013-02-12 14:41:00,51.8,32.1,30.01,South,180,0.0,3.4,47,0.00,,,0.00,WUHU216HW,2013-02-12 19:41:00,
2013-02-12 14:46:00,51.7,32.1,30.01,NNE,23,1.8,2.5,47,0.00,,,0.00,WUHU216HW,2013-02-12 19:46:00,
2013-02-12 14:51:00,51.5,31.9,30.02,NE,45,1.6,4.0,47,0.00,,,0.00,WUHU216HW,2013-02-12 19:51:00,
2013-02-12 14:56:00,51.3,31.7,30.03,North,0,0.0,4.0,47,0.00,,,0.00,WUHU216HW,2013-02-12 19:56:00,
2013-02-12 15:01:00,51.1,31.5,30.02,North,0,0.0,2.2,47,0.00,,,0.00,WUHU216HW,2013-02-12 20:01:00,
2013-02-12 15:06:00,51.1,31.5,30.03,North,0,2.5,2.7,47,0.00,,,0.00,WUHU216HW,2013-02-12 20:06:00,
2013-02-12 15:11:00,50.9,31.3,30.02,North,0,1.8,2.7,47,0.00,,,0.00,WUHU216HW,2013-02-12 20:11:00,
2013-02-12 15:16:00,50.8,31.2,30.02,NNW,338,0.4,2.7,47,0.00,,,0.00,WUHU216HW,2013-02-12 20:16:00,
2013-02-12 15:21:00,50.6,31.1,30.02,NNE,23,1.8,1.8,47,0.00,,,0.00,WUHU216HW,2013-02-12 20:21:00,
2013-02-12 15:26:00,50.4,30.9,30.02,North,0,0.7,2.0,47,0.00,,,0.00,WUHU216HW,2013-02-12 20:26:00,
2013-02-12 15:31:00,50.2,30.7,30.01,North,0,1.6,2.7,47,0.00,,,0.00,WUHU216HW,2013-02-12 20:31:00,
2013-02-12 15:36:00,50.2,30.7,30.02,North,0,0.9,2.7,47,0.00,,,0.00,WUHU216HW,2013-02-12 20:36:00,
2013-02-12 15:41:00,50.0,30.5,30.02,North,0,1.1,2.9,47,0.00,,,0.00,WUHU216HW,2013-02-12 20:41:00,
2013-02-12 15:46:00,50.0,30.5,30.00,NE,45,1.1,2.9,47,0.00,,,0.00,WUHU216HW,2013-02-12 20:46:00,
2013-02-12 15:51:00,49.9,31.0,30.00,North,0,0.4,1.8,48,0.00,,,0.00,WUHU216HW,2013-02-12 20:51:00,
2013-02-12 15:56:00,50.0,31.2,30.00,ENE,68,1.1,1.8,48,0.00,,,0.00,WUHU216HW,2013-02-12 20:56:00,
2013-02-12 16:01:00,49.9,31.0,29.99,NE,45,0.0,1.8,48,0.00,,,0.00,WUHU216HW,2013-02-12 21:01:00,
2013-02-12 16:06:00,49.9,31.5,29.98,NE,45,0.0,1.1,49,0.00,,,0.00,WUHU216HW,2013-02-12 21:06:00,
2013-02-12 16:11:00,50.0,31.7,29.99,NE,45,0.0,1.6,49,0.00,,,0.00,WUHU216HW,2013-02-12 21:11:00,
2013-02-12 16:16:00,50.0,31.7,29.99,SE,135,0.0,1.6,49,0.00,,,0.00,WUHU216HW,2013-02-12 21:16:00,
2013-02-12 16:21:00,50.0,31.7,30.00,SSW,203,0.2,1.1,49,0.00,,,0.00,WUHU216HW,2013-02-12 21:21:00,
2013-02-12 16:26:00,50.0,31.7,29.98,ESE,113,1.6,1.8,49,0.00,,,0.00,WUHU216HW,2013-02-12 21:26:00,
2013-02-12 16:31:00,49.9,31.5,29.98,SE,135,0.0,1.8,49,0.00,,,0.00,WUHU216HW,2013-02-12 21:31:00,
2013-02-12 16:36:00,49.9,31.5,29.99,SE,135,0.0,1.8,49,0.00,,,0.00,WUHU216HW,2013-02-12 21:36:00,
2013-02-12 16:41:00,49.7,31.3,29.99,ESE,113,0.0,0.7,49,0.00,,,0.00,WUHU216HW,2013-02-12 21:41:00,
2013-02-12 16:46:00,49.7,31.9,29.99,ESE,113,0.9,0.9,50,0.00,,,0.00,WUHU216HW,2013-02-12 21:46:00,
2013-02-12 16:51:00,49.5,31.7,29.98,SE,135,0.0,1.1,50,0.00,,,0.00,WUHU216HW,2013-02-12 21:51:00,
2013-02-12 16:56:00,49.5,31.7,29.98,SE,135,0.0,1.1,50,0.00,,,0.00,WUHU216HW,2013-02-12 21:56:00,
2013-02-12 17:01:00,49.3,31.5,29.96,SE,135,1.1,1.1,50,0.00,,,0.00,WUHU216HW,2013-02-12 22:01:00,
2013-02-12 17:06:00,49.3,32.0,29.97,SE,135,0.2,1.1,51,0.00,,,0.00,WUHU216HW,2013-02-12 22:06:00,
2013-02-12 17:11:00,49.3,32.0,29.97,ESE,113,0.0,1.1,51,0.00,,,0.00,WUHU216HW,2013-02-12 22:11:00,
2013-02-12 17:16:00,49.1,31.8,29.96,SE,135,0.4,1.3,51,0.00,,,0.00,WUHU216HW,2013-02-12 22:16:00,
2013-02-12 17:21:00,49.1,31.8,29.96,SE,135,0.4,1.3,51,0.00,,,0.00,WUHU216HW,2013-02-12 22:21:00,
2013-02-12 17:26:00,49.0,31.6,29.96,ESE,113,0.0,0.4,51,0.00,,,0.00,WUHU216HW,2013-02-12 22:26:00,
2013-02-12 17:31:00,49.0,31.6,29.97,ESE,113,0.0,0.4,51,0.00,,,0.00,WUHU216HW,2013-02-12 22:31:00,
2013-02-12 17:36:00,48.8,31.4,29.96,ESE,113,0.0,0.0,51,0.00,,,0.00,WUHU216HW,2013-02-12 22:36:00,
2013-02-12 17:41:00,48.8,31.4,29.95,ESE,113,0.0,0.0,51,0.00,,,0.00,WUHU216HW,2013-02-12 22:41:00,
2013-02-12 17:46:00,48.6,31.2,29.95,ESE,113,0.4,0.9,51,0.00,,,0.00,WUHU216HW,2013-02-12 22:46:00,
2013-02-12 17:51:00,48.6,31.2,29.94,ENE,68,0.7,0.9,51,0.00,,,0.00,WUHU216HW,2013-02-12 22:51:00,
2013-02-12 17:56:00,48.6,31.2,29.93,ENE,68,0.0,0.7,51,0.00,,,0.00,WUHU216HW,2013-02-12 22:56:00,
2013-02-12 18:01:00,48.4,31.5,29.93,SE,135,0.9,0.9,52,0.00,,,0.00,WUHU216HW,2013-02-12 23:01:00,
2013-02-12 18:06:00,48.2,31.3,29.93,ESE,113,0.0,1.1,52,0.00,,,0.00,WUHU216HW,2013-02-12 23:06:00,
2013-02-12 18:11:00,48.1,31.2,29.93,ESE,113,0.0,1.1,52,0.00,,,0.00,WUHU216HW,2013-02-12 23:11:00,
2013-02-12 18:16:00,48.1,31.2,29.92,ESE,113,0.0,0.0,52,0.00,,,0.00,WUHU216HW,2013-02-12 23:16:00,
2013-02-12 18:21:00,47.9,31.1,29.91,NE,45,0.2,1.1,52,0.00,,,0.00,WUHU216HW,2013-02-12 23:21:00,
2013-02-12 18:26:00,47.9,31.1,29.91,NE,45,0.0,1.3,52,0.00,,,0.00,WUHU216HW,2013-02-12 23:26:00,
2013-02-12 18:31:00,47.9,31.1,29.92,NE,45,0.0,1.3,52,0.00,,,0.00,WUHU216HW,2013-02-12 23:31:00,
2013-02-12 18:36:00,47.7,30.9,29.91,NE,45,0.0,0.7,52,0.00,,,0.00,WUHU216HW,2013-02-12 23:36:00,
2013-02-12 18:41:00,47.5,30.7,29.91,NE,45,0.0,0.9,52,0.00,,,0.00,WUHU216HW,2013-02-12 23:41:00,
2013-02-12 18:46:00,47.5,30.7,29.91,NE,45,0.0,0.9,52,0.00,,,0.00,WUHU216HW,2013-02-12 23:46:00,
2013-02-12 18:51:00,47.5,30.3,29.92,NE,45,0.0,0.0,51,0.00,,,0.00,WUHU216HW,2013-02-12 23:51:00,
2013-02-12 18:56:00,47.3,30.5,29.93,NE,45,0.0,0.0,52,0.00,,,0.00,WUHU216HW,2013-02-12 23:56:00,
2013-02-12 19:01:00,47.3,30.5,29.93,East,90,0.0,0.0,52,0.00,,,0.00,WUHU216HW,2013-02-13 00:01:00,
2013-02-12 19:06:00,47.2,30.3,29.93,ESE,113,0.0,0.7,52,0.00,,,0.00,WUHU216HW,2013-02-13 00:06:00,
2013-02-12 19:11:00,47.2,30.3,29.94,ESE,113,0.0,0.7,52,0.00,,,0.00,WUHU216HW,2013-02-13 00:11:00,
2013-02-12 19:16:00,47.2,30.3,29.95,SE,135,0.4,0.4,52,0.00,,,0.00,WUHU216HW,2013-02-13 00:16:00,
2013-02-12 19:21:00,47.2,30.3,29.95,SSE,158,0.7,0.9,52,0.00,,,0.00,WUHU216HW,2013-02-13 00:21:00,
2013-02-12 19:26:00,47.0,30.3,29.95,SSE,158,0.7,1.1,52,0.00,,,0.00,WUHU216HW,2013-02-13 00:26:00,
2013-02-12 19:31:00,47.0,30.7,29.95,South,180,0.0,1.1,53,0.00,,,0.00,WUHU216HW,2013-02-13 00:31:00,
2013-02-12 19:36:00,46.8,30.5,29.95,South,180,0.0,1.1,53,0.00,,,0.00,WUHU216HW,2013-02-13 00:36:00,
2013-02-12 19:41:00,46.8,30.5,29.94,South,180,0.0,0.0,53,0.00,,,0.00,WUHU216HW,2013-02-13 00:41:00,
2013-02-12 19:46:00,46.8,30.5,29.95,North,0,0.7,2.7,53,0.00,,,0.00,WUHU216HW,2013-02-13 00:46:00,
2013-02-12 19:51:00,46.6,30.8,29.96,NNW,338,0.0,2.7,54,0.00,,,0.00,WUHU216HW,2013-02-13 00:51:00,
2013-02-12 19:56:00,46.4,30.6,29.95,NNE,23,0.7,1.1,54,0.00,,,0.00,WUHU216HW,2013-02-13 00:56:00,
2013-02-12 20:01:00,46.4,30.6,29.96,North,0,0.4,1.1,54,0.00,,,0.00,WUHU216HW,2013-02-13 01:01:00,
2013-02-12 20:06:00,46.3,30.9,29.95,NNE,23,1.6,1.8,55,0.00,,,0.00,WUHU216HW,2013-02-13 01:06:00,
2013-02-12 20:11:00,46.1,30.7,29.95,ENE,68,1.1,1.8,55,0.00,,,0.00,WUHU216HW,2013-02-13 01:11:00,
2013-02-12 20:16:00,46.1,30.7,29.95,NE,45,0.7,1.8,55,0.00,,,0.00,WUHU216HW,2013-02-13 01:16:00,
2013-02-12 20:21:00,46.1,30.7,29.95,North,0,0.0,1.8,55,0.00,,,0.00,WUHU216HW,2013-02-13 01:21:00,
2013-02-12 20:26:00,46.1,30.7,29.94,NE,45,1.3,1.8,55,0.00,,,0.00,WUHU216HW,2013-02-13 01:26:00,
2013-02-12 20:31:00,46.3,30.9,29.94,ENE,68,1.1,2.0,55,0.00,,,0.00,WUHU216HW,2013-02-13 01:31:00,
2013-02-12 20:36:00,46.3,30.9,29.94,ESE,113,0.0,2.0,55,0.00,,,0.00,WUHU216HW,2013-02-13 01:36:00,
2013-02-12 20:41:00,46.3,30.9,29.94,SW,225,0.7,1.1,55,0.00,,,0.00,WUHU216HW,2013-02-13 01:41:00,
2013-02-12 20:46:00,46.1,31.1,29.93,ESE,113,0.9,1.1,56,0.00,,,0.00,WUHU216HW,2013-02-13 01:46:00,
2013-02-12 20:51:00,46.1,31.1,29.92,South,180,1.1,1.6,56,0.00,,,0.00,WUHU216HW,2013-02-13 01:51:00,
2013-02-12 20:56:00,46.1,31.6,29.92,SE,135,2.0,2.5,57,0.00,,,0.00,WUHU216HW,2013-02-13 01:56:00,
2013-02-12 21:01:00,45.9,31.5,29.93,SE,135,0.9,2.5,57,0.00,,,0.00,WUHU216HW,2013-02-13 02:01:00,
2013-02-12 21:06:00,45.9,31.5,29.92,SE,135,2.7,3.1,57,0.00,,,0.00,WUHU216HW,2013-02-13 02:06:00,
2013-02-12 21:11:00,45.7,32.2,29.93,SSE,158,2.5,3.1,59,0.00,,,0.00,WUHU216HW,2013-02-13 02:11:00,
2013-02-12 21:16:00,45.7,33.0,29.93,SE,135,2.2,3.1,61,0.01,,,0.01,WUHU216HW,2013-02-13 02:16:00,
2013-02-12 21:21:00,45.7,33.0,29.92,SE,135,1.8,2.9,61,0.01,,,0.01,WUHU216HW,2013-02-13 02:21:00,
2013-02-12 21:26:00,45.5,32.9,29.91,SE,135,2.0,2.9,61,0.01,,,0.01,WUHU216HW,2013-02-13 02:26:00,
2013-02-12 21:31:00,45.4,33.1,29.91,SSE,158,1.1,2.5,62,0.01,,,0.01,WUHU216HW,2013-02-13 02:31:00,
2013-02-12 21:36:00,45.2,33.3,29.91,SSE,158,1.1,2.5,63,0.01,,,0.01,WUHU216HW,2013-02-13 02:36:00,
2013-02-12 21:41:00,45.0,33.6,29.91,SSE,158,1.6,1.8,64,0.01,,,0.01,WUHU216HW,2013-02-13 02:41:00,
2013-02-12 21:46:00,45.0,33.9,29.91,South,180,1.8,2.7,65,0.01,,,0.01,WUHU216HW,2013-02-13 02:46:00,
2013-02-12 21:51:00,45.0,34.3,29.92,SE,135,1.3,2.7,66,0.01,,,0.01,WUHU216HW,2013-02-13 02:51:00,
2013-02-12 21:56:00,44.8,34.1,29.92,SE,135,2.5,2.5,66,0.01,,,0.01,WUHU216HW,2013-02-13 02:56:00,
2013-02-12 22:01:00,44.5,33.8,29.91,SE,135,1.6,3.4,66,0.01,,,0.01,WUHU216HW,2013-02-13 03:01:00,
2013-02-12 22:06:00,44.3,34.0,29.91,SE,135,2.0,3.4,67,0.01,,,0.01,WUHU216HW,2013-02-13 03:06:00,
2013-02-12 22:11:00,44.3,34.0,29.91,SE,135,1.8,2.5,67,0.01,,,0.01,WUHU216HW,2013-02-13 03:11:00,
2013-02-12 22:16:00,44.1,34.2,29.90,SE,135,2.0,2.5,68,0.00,,,0.01,WUHU216HW,2013-02-13 03:16:00,
2013-02-12 22:21:00,43.9,34.0,29.89,SSE,158,0.0,2.7,68,0.00,,,0.01,WUHU216HW,2013-02-13 03:21:00,
2013-02-12 22:26:00,43.7,34.3,29.89,SE,135,2.0,2.7,69,0.00,,,0.01,WUHU216HW,2013-02-13 03:26:00,
2013-02-12 22:31:00,43.7,34.3,29.88,SE,135,0.7,2.5,69,0.00,,,0.01,WUHU216HW,2013-02-13 03:31:00,
2013-02-12 22:36:00,43.6,34.1,29.88,SE,135,1.6,2.5,69,0.00,,,0.01,WUHU216HW,2013-02-13 03:36:00,
2013-02-12 22:41:00,43.6,34.5,29.87,ESE,113,0.0,2.0,70,0.00,,,0.01,WUHU216HW,2013-02-13 03:41:00,
2013-02-12 22:46:00,43.6,34.5,29.87,NE,45,0.9,2.0,70,0.00,,,0.01,WUHU216HW,2013-02-13 03:46:00,
2013-02-12 22:51:00,43.6,34.5,29.86,NNE,23,0.2,1.3,70,0.00,,,0.01,WUHU216HW,2013-02-13 03:51:00,
2013-02-12 22:56:00,43.6,34.5,29.86,East,90,0.0,1.1,70,0.00,,,0.01,WUHU216HW,2013-02-13 03:56:00,
2013-02-12 23:01:00,43.6,34.5,29.87,SSE,158,0.2,0.7,70,0.00,,,0.01,WUHU216HW,2013-02-13 04:01:00,
2013-02-12 23:06:00,43.6,34.8,29.87,SE,135,0.4,1.1,71,0.00,,,0.01,WUHU216HW,2013-02-13 04:06:00,
2013-02-12 23:11:00,43.6,34.5,29.87,SE,135,0.0,1.1,70,0.00,,,0.01,WUHU216HW,2013-02-13 04:11:00,
2013-02-12 23:16:00,43.6,34.8,29.87,SE,135,0.4,0.7,71,0.00,,,0.01,WUHU216HW,2013-02-13 04:16:00,
2013-02-12 23:21:00,43.6,34.8,29.87,SE,135,0.0,0.7,71,0.00,,,0.01,WUHU216HW,2013-02-13 04:21:00,
2013-02-12 23:26:00,43.6,34.8,29.87,SE,135,0.2,0.7,71,0.00,,,0.01,WUHU216HW,2013-02-13 04:26:00,
2013-02-12 23:31:00,43.6,34.8,29.87,SE,135,0.7,1.1,71,0.00,,,0.01,WUHU216HW,2013-02-13 04:31:00,
2013-02-12 23:36:00,43.7,35.0,29.87,ESE,113,0.0,1.1,71,0.00,,,0.01,WUHU216HW,2013-02-13 04:36:00,
2013-02-12 23:41:00,43.7,34.7,29.86,SE,135,1.8,1.8,70,0.00,,,0.01,WUHU216HW,2013-02-13 04:41:00,
2013-02-12 23:46:00,43.7,35.0,29.85,East,90,0.2,2.2,71,0.00,,,0.01,WUHU216HW,2013-02-13 04:46:00,
2013-02-12 23:51:00,43.9,35.5,29.85,SSW,203,1.1,2.2,72,0.00,,,0.01,WUHU216HW,2013-02-13 04:51:00,
2013-02-12 23:56:00,43.9,35.5,29.85,SSE,158,2.2,3.4,72,0.00,,,0.01,WUHU216HW,2013-02-13 04:56:00,